Погода в Белицком

Украина / Донецкая область     48°24′26″N   37°10′50″E
темп.,
°C
ветер,
м/с
пор.,
м/с
влажн.,
%
обл.,
%
осадки,
мм/ч
давл.,
гПа
погр.,
м
22 апреля, чт
чт2200:00+8ююз378425 0.0 1018154
03:00+7ююз36945 0.2 1020132
06:00+6юз35935 0.0 102098
09:00+12юз34665 0.0 1021549
12:00+16юз444735 0.1 10211926
15:00+15з3447100 0.2 1021950
18:00+15ююз1253100 0.2 1021231
21:00+12ююз3667100 0.2 1022136
23 апреля, пт
пт2300:00+11ююз3575100 0.0 1021159
03:00+10ююз368193 0.2 1021201
06:00+9юз378569 0.0 1021254
09:00+13ююз57635 0.0 1021700
12:00+17юз674529 0.0 10202193
15:00+18юз783787 0.0 10182639
18:00+15ююз7105061 0.0 10171011
21:00+11ююз7126591 0.0 1017411
24 апреля, сб
сб2400:00+10юз61176100 0.3 1016446
03:00+9з598792 0.4 1015486
06:00+6сз5790100 1.3 1016872
09:00+9зсз57649 1.9 10171196
12:00+12з71042100 0.0 10162581
15:00+13зюз81138100 0.0 10163036
18:00+9з8116369 0.4 10171441
21:00+6з611605 0.4 1019647
25 апреля, вс
вс2500:00+3з510815 0.0 1020365
03:00+2зюз49905 0.0 1021248
06:00+2з38870 0.0 1021205
09:00+7зсз46541 0.0 1021978
12:00+10зсз453961 0.0 10212028
15:00+12з4434100 0.0 10192210
18:00+11з3339100 0.0 10191823
21:00+8ююз2246100 0.0 101911
26 апреля, пн
пн2600:00+6юз375719 0.0 1019120
03:00+3сз249170 0.0 1019116
06:00+4зсз458998 0.1 1019478
09:00+7з566464 0.1 10201285
12:00+10зсз674035 0.1 10202092
15:00+11з683489 0.1 10192445
18:00+11з583810 0.0 10182323
21:00+7з225448 0.0 101916